• en Belgique
  • Liste des pays
  • À 7 jours
  • Température de l'eau
  • Carte satellitaire
  • Carte météo
  • Widgets météo
  • user-avatar
    Se connecter

    Météo par heure à Oran

    Ce jour, 21 Novembre, Mardi

    Heure Température Précipitation Vent Pression Humidité
    00:00 +16°C° 0 mm 2 m/s 756 mmHg 33%
    01:00 +15°C° 0 mm 1 m/s 756 mmHg 33%
    02:00 +15°C° 0 mm 1 m/s 756 mmHg 33%
    03:00 +14°C° 0 mm 1 m/s 756 mmHg 33%
    04:00 +14°C° 0 mm 1 m/s 756 mmHg 32%
    05:00 +14°C° 0 mm 1 m/s 756 mmHg 32%
    06:00 +14°C° 0 mm 1 m/s 756 mmHg 31%
    07:00 +16°C° 0 mm 1 m/s 756 mmHg 27%
    08:00 +19°C° 0 mm 1 m/s 756 mmHg 24%
    09:00 +21°C° 0 mm 1 m/s 756 mmHg 20%
    10:00 +22°C° 0 mm 1 m/s 756 mmHg 19%
    11:00 +23°C° 0 mm 1 m/s 756 mmHg 18%
    12:00 +24°C° 0 mm 1 m/s 756 mmHg 16%
    13:00 +24°C° 0 mm 1 m/s 755 mmHg 17%
    14:00 +24°C° 0 mm 1 m/s 755 mmHg 17%
    15:00 +25°C° 0 mm 2 m/s 754 mmHg 17%
    16:00 +23°C° 0 mm 2 m/s 754 mmHg 20%
    17:00 +20°C° 0 mm 2 m/s 754 mmHg 23%
    18:00 +19°C° 0 mm 2 m/s 754 mmHg 27%
    19:00 +19°C° 0 mm 1 m/s 754 mmHg 28%
    20:00 +18°C° 0 mm 1 m/s 754 mmHg 29%
    21:00 +18°C° 0 mm 1 m/s 754 mmHg 30%
    22:00 +16°C° 0 mm 1 m/s 754 mmHg 29%
    23:00 +16°C° 0 mm 1 m/s 754 mmHg 29%

    Demain, 22 Novembre, Mercredi

    Heure Température Précipitation Vent Pression Humidité
    00:00 +15°C° 0 mm 0 m/s 754 mmHg 28%
    01:00 +16°C° 0 mm 1 m/s 754 mmHg 27%
    02:00 +16°C° 0 mm 1 m/s 753 mmHg 27%
    03:00 +16°C° 0 mm 1 m/s 753 mmHg 26%
    04:00 +15°C° 0 mm 1 m/s 753 mmHg 26%
    05:00 +15°C° 0 mm 1 m/s 753 mmHg 27%
    06:00 +15°C° 0 mm 1 m/s 753 mmHg 27%
    07:00 +16°C° 0 mm 1 m/s 753 mmHg 24%
    08:00 +19°C° 0 mm 1 m/s 753 mmHg 22%
    09:00 +21°C° 0 mm 1 m/s 753 mmHg 19%
    10:00 +21°C° 0 mm 2 m/s 753 mmHg 18%
    11:00 +23°C° 0 mm 2 m/s 753 mmHg 17%
    12:00 +24°C° 0 mm 2 m/s 752 mmHg 16%
    13:00 +24°C° 0 mm 2 m/s 752 mmHg 17%
    14:00 +24°C° 0 mm 2 m/s 752 mmHg 18%
    15:00 +24°C° 0 mm 2 m/s 752 mmHg 19%
    16:00 +21°C° 0 mm 2 m/s 752 mmHg 24%
    17:00 +20°C° 0 mm 1 m/s 752 mmHg 29%
    18:00 +16°C° 0 mm 0 m/s 752 mmHg 34%
    19:00 +18°C° 0 mm 1 m/s 752 mmHg 34%
    20:00 +16°C° 0 mm 1 m/s 753 mmHg 33%
    21:00 +16°C° 0 mm 1 m/s 753 mmHg 33%
    22:00 +16°C° 0 mm 2 m/s 753 mmHg 32%
    23:00 +16°C° 0 mm 2 m/s 753 mmHg 31%

    Après-demain, 23 Novembre, Jeudi

    Heure Température Précipitation Vent Pression Humidité
    00:00 +15°C° 0 mm 2 m/s 753 mmHg 30%
    01:00 +15°C° 0 mm 2 m/s 753 mmHg 31%
    02:00 +14°C° 0 mm 2 m/s 753 mmHg 32%
    03:00 +14°C° 0 mm 2 m/s 753 mmHg 33%
    04:00 +14°C° 0 mm 1 m/s 753 mmHg 33%
    05:00 +13°C° 0 mm 1 m/s 753 mmHg 33%
    06:00 +13°C° 0 mm 1 m/s 753 mmHg 33%
    07:00 +15°C° 0 mm 1 m/s 754 mmHg 28%
    08:00 +19°C° 0 mm 1 m/s 754 mmHg 23%
    09:00 +20°C° 0 mm 2 m/s 755 mmHg 19%
    10:00 +22°C° 0 mm 1 m/s 755 mmHg 18%
    11:00 +23°C° 0 mm 1 m/s 755 mmHg 17%
    12:00 +24°C° 0 mm 1 m/s 755 mmHg 17%
    13:00 +24°C° 0 mm 1 m/s 755 mmHg 17%
    14:00 +24°C° 0 mm 1 m/s 755 mmHg 17%
    15:00 +24°C° 0 mm 1 m/s 754 mmHg 17%
    16:00 +22°C° 0 mm 1 m/s 754 mmHg 20%
    17:00 +20°C° 0 mm 1 m/s 755 mmHg 23%
    18:00 +19°C° 0 mm 1 m/s 755 mmHg 27%
    19:00 +18°C° 0 mm 1 m/s 755 mmHg 27%
    20:00 +17°C° 0 mm 2 m/s 755 mmHg 27%
    21:00 +16°C° 0 mm 2 m/s 755 mmHg 27%
    22:00 +16°C° 0 mm 2 m/s 755 mmHg 26%
    23:00 +16°C° 0 mm 2 m/s 755 mmHg 26%

    24 Novembre, Vendredi

    Heure Température Précipitation Vent Pression Humidité
    00:00 +16°C° 0 mm 2 m/s 755 mmHg 25%
    01:00 +15°C° 0 mm 2 m/s 755 mmHg 24%
    02:00 +15°C° 0 mm 2 m/s 755 mmHg 24%
    03:00 +15°C° 0 mm 2 m/s 754 mmHg 24%
    04:00 +15°C° 0 mm 2 m/s 754 mmHg 24%
    05:00 +14°C° 0 mm 2 m/s 754 mmHg 24%
    06:00 +14°C° 0 mm 2 m/s 754 mmHg 24%
    07:00 +16°C° 0 mm 2 m/s 755 mmHg 22%
    08:00 +18°C° 0 mm 2 m/s 755 mmHg 20%
    09:00 +20°C° 0 mm 2 m/s 755 mmHg 18%
    10:00 +21°C° 0 mm 2 m/s 755 mmHg 17%
    11:00 +23°C° 0 mm 1 m/s 755 mmHg 15%
    12:00 +25°C° 0 mm 1 m/s 755 mmHg 14%
    13:00 +25°C° 0 mm 1 m/s 754 mmHg 14%
    14:00 +25°C° 0 mm 1 m/s 754 mmHg 14%
    15:00 +26°C° 0 mm 1 m/s 754 mmHg 14%
    16:00 +24°C° 0 mm 1 m/s 754 mmHg 17%
    17:00 +22°C° 0 mm 1 m/s 754 mmHg 19%
    18:00 +19°C° 0 mm 2 m/s 754 mmHg 22%
    19:00 +19°C° 0 mm 1 m/s 754 mmHg 23%
    20:00 +19°C° 0 mm 1 m/s 754 mmHg 23%
    21:00 +18°C° 0 mm 1 m/s 755 mmHg 24%
    22:00 +18°C° 0 mm 1 m/s 754 mmHg 23%
    23:00 +18°C° 0 mm 1 m/s 754 mmHg 23%

    25 Novembre, Samedi

    Heure Température Précipitation Vent Pression Humidité
    00:00 +18°C° 0 mm 1 m/s 754 mmHg 22%
    01:00 +18°C° 0 mm 1 m/s 754 mmHg 22%
    02:00 +16°C° 0 mm 1 m/s 754 mmHg 22%
    03:00 +16°C° 0 mm 2 m/s 754 mmHg 22%
    04:00 +16°C° 0 mm 2 m/s 754 mmHg 23%
    05:00 +16°C° 0 mm 2 m/s 754 mmHg 23%
    06:00 +16°C° 0 mm 2 m/s 754 mmHg 24%
    07:00 +17°C° 0 mm 2 m/s 754 mmHg 22%
    08:00 +19°C° 0 mm 2 m/s 755 mmHg 21%
    09:00 +20°C° 0 mm 2 m/s 755 mmHg 20%
    10:00 +23°C° 0 mm 2 m/s 755 mmHg 18%
    11:00 +24°C° 0 mm 2 m/s 755 mmHg 16%
    12:00 +26°C° 0 mm 1 m/s 754 mmHg 14%
    13:00 +26°C° 0 mm 2 m/s 754 mmHg 14%
    14:00 +26°C° 0 mm 2 m/s 754 mmHg 14%
    15:00 +27°C° 0 mm 2 m/s 753 mmHg 14%
    16:00 +25°C° 0 mm 2 m/s 754 mmHg 17%
    17:00 +23°C° 0 mm 2 m/s 754 mmHg 20%
    18:00 +21°C° 0 mm 3 m/s 754 mmHg 23%
    19:00 +20°C° 0 mm 3 m/s 754 mmHg 24%
    20:00 +20°C° 0 mm 3 m/s 755 mmHg 24%
    21:00 +20°C° 0 mm 3 m/s 755 mmHg 24%
    22:00 +19°C° 0 mm 3 m/s 755 mmHg 24%
    23:00 +19°C° 0 mm 3 m/s 755 mmHg 24%

    26 Novembre, Dimanche

    Heure Température Précipitation Vent Pression Humidité
    00:00 +19°C° 0 mm 3 m/s 755 mmHg 24%
    01:00 +19°C° 0 mm 3 m/s 755 mmHg 24%
    02:00 +19°C° 0 mm 2 m/s 755 mmHg 24%
    03:00 +18°C° 0 mm 2 m/s 755 mmHg 24%
    04:00 +18°C° 0 mm 2 m/s 755 mmHg 25%
    05:00 +17°C° 0 mm 2 m/s 755 mmHg 27%
    06:00 +17°C° 0 mm 2 m/s 755 mmHg 28%
    07:00 +18°C° 0 mm 2 m/s 756 mmHg 26%
    08:00 +20°C° 0 mm 2 m/s 756 mmHg 25%
    09:00 +21°C° 0 mm 2 m/s 757 mmHg 23%
    10:00 +23°C° 0 mm 2 m/s 757 mmHg 22%
    11:00 +24°C° 0 mm 2 m/s 757 mmHg 21%
    12:00 +25°C° 0 mm 2 m/s 756 mmHg 20%
    13:00 +25°C° 0 mm 2 m/s 756 mmHg 22%
    14:00 +25°C° 0 mm 3 m/s 756 mmHg 23%
    15:00 +25°C° 0 mm 3 m/s 756 mmHg 25%
    16:00 +23°C° 0 mm 2 m/s 756 mmHg 30%
    17:00 +20°C° 0 mm 2 m/s 756 mmHg 36%
    18:00 +19°C° 0 mm 2 m/s 757 mmHg 42%
    19:00 +18°C° 0 mm 2 m/s 757 mmHg 42%
    20:00 +18°C° 0 mm 1 m/s 757 mmHg 43%
    21:00 +18°C° 0 mm 1 m/s 757 mmHg 43%
    22:00 +18°C° 0 mm 1 m/s 757 mmHg 43%
    23:00 +16°C° 0 mm 1 m/s 757 mmHg 43%
    Voir plus